Theta_e
302 302 301 300 299 300 300 301 302 301 301 296 294 296 289 288 285 294 297 299 300 293 285 288 286 283 286 290 289 291 288 286 289 287 290 287 291 288 288 287 286 287 284 282 283 284 282 283 280 281 282 282 286 286 288 290 289 289 285 288 289 295 283 280 278 279 283 283 286 288 289 288 284 284 283 284 284 282 279 275 277 279 278 279 277 275 275
303 302 301 300 300 299 300 300 301 301 301 297 296 292 289 289 288 290 295 298 299 290 280 281 282 284 287 287 287 290 288 288 287 288 289 288 288 287 288 289 289 285 287 285 283 287 278 284 282 282 286 284 289 287 288 290 288 288 286 285 292 282 282 281 276 276 278 281 283 284 286 287 283 282 282 284 285 285 282 281 280 278 278 280 276 273 273
303 302 302 300 300 299 300 300 301 301 301 301 296 290 291 289 292 291 294 295 293 286 287 284 283 283 283 284 283 286 288 292 291 291 289 292 290 289 288 290 288 284 287 285 286 287 283 281 285 287 287 287 293 287 288 291 289 291 295 297 294 285 282 281 274 273 271 272 273 276 278 282 282 283 283 284 284 285 282 279 278 278 280 280 277 272 280
303 303 302 301 300 299 299 300 300 301 301 302 296 291 290 285 280 286 287 288 287 290 293 288 285 283 283 282 284 287 285 289 292 293 291 293 292 290 290 291 293 290 290 287 286 285 288 284 281 285 285 289 293 288 287 290 290 295 299 299 292 287 287 284 280 278 278 279 279 282 282 280 279 280 284 283 283 285 284 278 277 277 276 279 279 281 282
303 303 302 301 300 299 299 299 300 301 301 301 294 291 288 287 281 283 281 287 289 286 286 285 287 283 286 281 285 284 285 287 289 296 287 293 291 290 289 288 288 288 288 286 285 287 287 288 285 285 286 288 292 295 295 290 293 299 298 300 291 288 282 283 284 282 283 281 283 284 287 283 281 282 283 283 284 283 283 279 279 281 281 276 280 281 288
303 303 302 302 300 300 299 299 300 300 301 301 293 283 286 281 285 288 289 283 281 282 283 287 285 287 287 284 288 285 284 285 283 289 292 292 294 287 289 290 291 289 288 288 282 283 283 285 281 284 287 288 290 288 292 289 294 298 294 298 292 286 280 282 284 283 283 283 284 286 286 284 282 284 282 282 282 283 283 283 281 283 280 278 282 284 288
303 303 302 302 301 300 299 299 299 300 300 299 291 286 289 289 288 287 291 283 285 285 285 286 286 285 286 286 287 284 284 283 287 287 286 288 288 292 284 286 288 290 291 289 284 284 282 282 282 285 286 287 287 284 288 290 291 293 292 290 289 286 281 282 283 284 284 285 284 285 286 282 284 283 284 284 283 284 285 283 280 285 283 282 283 286 290
304 303 302 302 302 301 299 298 299 300 300 297 292 290 285 283 283 283 288 287 285 286 285 285 285 283 287 284 285 285 285 284 286 288 287 283 286 292 287 287 289 291 291 289 285 288 289 288 284 288 288 288 288 288 290 286 289 289 288 291 291 288 280 289 285 281 283 284 285 284 286 285 283 282 283 283 284 283 283 282 283 287 286 287 285 287 289
304 303 302 302 302 301 300 299 298 299 300 292 290 290 291 290 292 290 284 282 284 287 286 284 283 282 286 284 285 285 286 285 287 286 290 288 286 289 287 289 289 292 290 289 288 291 291 291 290 291 290 286 291 288 289 294 288 288 289 290 289 289 282 285 281 278 280 283 283 283 284 286 284 282 281 282 283 283 282 284 286 286 286 287 289 288 288
304 303 302 302 302 301 300 299 298 299 299 292 291 287 293 292 294 293 288 282 287 283 285 285 285 282 285 286 285 284 285 287 288 284 290 293 291 291 290 289 289 290 289 287 289 293 294 295 295 295 295 295 295 295 294 294 291 289 289 289 287 286 282 280 277 277 277 282 283 283 283 283 281 279 282 284 282 282 283 286 289 287 289 288 282 286 289
304 303 302 302 302 302 301 299 298 298 297 292 289 289 291 288 287 288 289 281 283 285 284 283 282 285 286 287 285 287 287 288 288 283 284 290 290 293 292 290 289 289 289 291 296 297 297 298 298 298 296 295 295 294 295 295 295 294 289 287 285 286 286 282 281 278 278 283 282 283 282 273 273 281 283 286 285 285 285 285 287 287 290 288 289 289 293
303 303 302 302 302 302 301 300 299 298 297 296 295 291 293 294 291 290 285 280 281 285 283 281 283 285 284 285 286 285 285 286 286 289 285 288 290 293 293 292 293 286 295 298 298 298 299 300 298 297 297 296 295 295 295 294 294 295 294 290 286 285 283 282 281 279 279 280 281 280 270 271 283 284 287 288 290 288 284 287 285 286 289 292 295 299 305
304 303 303 302 302 302 302 301 300 298 298 296 294 290 293 295 291 288 286 283 280 282 281 283 286 285 286 286 285 286 288 288 289 290 291 290 290 293 294 293 292 293 298 296 296 296 289 283 287 289 291 294 293 295 295 293 293 295 294 294 290 283 283 281 281 279 279 277 273 273 274 283 286 288 291 290 288 285 287 286 287 289 290 291 296 302 308
304 303 303 303 302 302 302 302 300 299 298 297 294 293 294 294 289 288 287 282 281 284 285 283 285 285 285 285 286 286 287 288 289 291 290 293 290 291 295 296 296 297 297 297 295 292 287 284 282 284 285 286 288 287 290 293 293 292 291 292 294 290 287 282 281 282 279 275 274 278 281 285 286 287 291 289 287 287 283 279 286 292 290 290 291 298 307
304 304 303 303 303 302 302 302 300 299 298 298 295 294 294 294 294 290 290 287 281 284 284 280 284 284 285 286 286 285 285 286 287 287 291 293 292 295 295 296 298 297 296 296 291 285 282 281 282 280 282 281 279 281 288 287 291 292 291 291 292 291 286 284 283 280 278 280 277 275 273 273 280 286 289 292 291 291 290 284 287 290 292 292 300 305 308
304 304 303 303 303 303 302 302 301 300 299 298 295 293 294 296 295 294 290 286 284 278 282 285 287 286 285 285 287 285 284 284 286 287 288 289 291 293 295 297 297 296 298 295 287 282 279 281 278 279 278 280 285 282 282 286 285 288 289 291 289 288 287 285 283 278 277 278 276 272 272 278 281 287 291 293 292 292 289 286 283 286 289 293 304 307 309
304 303 304 303 303 303 303 302 301 300 299 298 293 293 292 295 294 292 289 288 285 281 288 289 288 288 286 284 286 285 286 284 287 284 283 285 289 291 293 296 297 297 294 285 283 281 282 281 281 282 282 284 282 281 283 282 281 280 286 286 286 285 281 282 283 278 276 274 274 275 274 282 290 290 291 293 293 291 286 280 277 287 292 294 300 307 309
304 303 303 303 303 303 303 302 302 301 300 299 295 292 291 293 295 294 290 288 283 283 285 287 288 284 281 283 283 287 289 289 289 289 286 288 289 290 290 292 291 296 295 285 282 280 280 280 280 279 280 286 289 287 279 282 279 280 282 281 280 279 280 281 279 276 277 277 275 276 280 287 289 290 295 296 292 287 278 275 285 289 290 294 301 307 310
304 303 303 303 303 303 303 303 302 302 300 299 296 293 291 291 294 295 291 287 285 281 287 291 289 286 288 290 287 288 289 289 288 284 285 285 287 291 292 292 294 288 294 284 284 281 279 281 284 282 279 281 284 282 286 280 278 282 282 280 280 279 280 279 277 278 278 276 276 278 278 285 290 294 296 295 289 279 275 287 290 295 297 295 301 306 309
303 303 303 303 303 303 303 303 302 302 301 300 296 290 291 293 295 294 290 284 285 283 286 287 288 285 289 287 284 285 287 289 289 287 285 283 291 291 290 287 291 293 290 291 286 286 284 283 285 282 279 279 282 285 280 283 285 284 283 283 279 282 278 277 277 277 277 273 275 277 279 288 297 297 293 293 284 283 285 291 294 295 295 296 297 306 309
302 302 302 302 303 303 303 303 302 302 301 300 297 292 289 292 294 295 294 291 285 281 283 290 290 289 289 288 289 289 288 286 288 287 289 289 292 289 283 283 288 289 288 290 285 285 288 285 286 283 284 283 286 284 281 279 282 288 288 283 285 287 279 278 277 279 277 273 276 281 285 290 294 294 290 296 297 298 293 296 297 296 295 296 298 303 308
301 301 301 302 302 303 303 303 302 302 301 300 299 294 290 293 294 295 295 293 287 283 285 289 290 289 290 291 291 291 290 291 292 293 289 286 292 291 289 291 291 292 296 297 290 289 293 289 286 283 283 283 283 282 284 277 278 284 287 287 282 288 285 280 283 286 280 280 280 286 286 292 294 295 297 296 298 297 296 297 298 298 298 294 297 302 303
301 301 301 301 302 303 303 303 302 302 301 301 298 292 290 292 293 296 294 289 290 291 291 290 291 291 292 292 294 294 293 294 293 293 293 289 285 290 290 291 292 300 300 299 292 292 292 291 287 288 284 284 284 281 283 281 279 283 284 288 289 291 292 289 289 290 291 291 291 294 294 295 297 296 295 296 299 299 298 298 297 298 298 296 298 297 302
301 302 302 302 303 303 303 303 302 302 301 301 299 293 290 291 293 293 292 290 286 283 287 290 287 283 286 290 293 295 294 293 294 294 295 294 286 285 292 295 298 298 298 299 300 295 291 291 292 291 284 286 283 279 279 281 281 286 283 285 287 289 291 288 288 288 288 287 291 294 296 295 296 297 300 297 296 297 297 296 296 299 301 300 298 298 300
301 302 302 302 303 303 303 302 302 301 301 301 298 297 295 293 294 293 288 282 283 282 279 283 285 290 292 295 297 296 296 297 297 295 295 295 293 289 290 298 301 297 295 297 298 294 287 289 288 285 282 289 289 283 284 281 284 287 281 283 285 288 294 287 287 286 287 288 293 295 295 295 295 295 299 299 300 300 298 296 297 298 300 300 300 299 300
301 301 302 303 303 303 303 302 302 301 301 300 299 293 291 291 293 293 292 290 288 285 280 281 286 293 294 295 293 295 298 297 297 296 295 295 296 296 295 297 296 298 296 296 295 291 288 289 286 286 285 287 291 285 286 289 287 288 286 288 291 291 292 285 289 288 289 289 293 295 296 297 297 299 298 298 297 298 299 297 298 299 300 300 301 298 299
301 302 302 302 302 302 302 301 301 301 300 299 296 293 291 291 293 292 290 289 285 283 282 280 286 292 294 291 295 296 297 296 296 296 296 297 297 297 296 294 294 293 292 292 290 287 286 286 286 286 288 289 292 289 287 288 288 285 284 288 290 287 285 287 287 283 283 287 291 293 288 287 294 297 299 299 299 296 297 297 298 298 299 298 299 300 298
302 302 302 302 302 301 301 302 301 301 300 299 297 293 293 292 293 294 294 292 288 284 283 284 285 289 294 290 294 295 296 297 296 296 295 296 296 295 295 294 293 292 288 288 287 285 285 287 288 286 286 288 289 288 289 289 287 284 283 288 290 289 290 285 282 280 287 291 292 291 293 289 291 295 298 298 298 296 298 299 297 296 296 298 299 300 300
302 302 302 301 301 301 301 302 301 300 299 298 291 291 292 294 295 296 295 296 293 288 286 286 289 287 281 290 296 295 296 295 294 295 295 295 295 295 294 294 293 293 293 291 287 286 285 285 284 289 291 292 289 286 286 284 279 284 287 292 293 293 295 294 291 287 291 293 294 292 293 297 298 297 297 298 298 296 297 297 297 296 297 298 299 298 299
302 301 301 301 301 302 301 301 300 299 298 293 290 285 283 292 296 295 296 296 293 292 285 284 282 285 292 292 291 293 294 295 295 295 294 294 294 294 294 294 294 295 293 289 288 286 283 285 283 286 290 295 291 284 281 282 283 287 288 291 294 293 293 295 296 295 296 298 298 296 294 294 295 295 296 296 299 297 296 298 298 297 298 297 298 298 298
302 301 301 301 301 301 301 300 299 299 298 291 287 281 280 282 291 298 297 297 295 292 286 286 284 288 287 289 290 291 293 295 294 293 293 294 294 294 296 296 296 296 287 284 287 284 284 285 284 288 291 291 286 284 284 282 278 281 291 292 293 293 293 294 293 295 296 297 296 297 296 296 295 296 299 299 298 297 295 296 298 301 299 299 298 297 298
301 301 301 301 301 300 300 299 299 299 294 291 288 284 282 289 295 299 299 298 297 291 286 283 284 284 283 288 292 293 294 295 296 294 292 294 292 295 296 297 292 296 291 285 283 286 285 282 286 286 289 293 287 280 280 279 278 287 290 290 293 293 294 293 294 294 294 294 295 296 294 295 295 296 297 296 296 295 296 297 297 298 300 299 298 299 298
301 301 301 300 300 299 299 299 299 298 295 296 299 299 299 299 299 298 298 297 294 289 291 285 283 285 283 287 292 292 294 292 293 291 291 291 292 292 290 293 293 293 301 293 287 286 283 283 286 289 292 289 284 280 282 281 287 288 288 291 291 292 294 294 293 293 293 295 295 295 292 293 296 295 293 293 295 296 295 296 297 299 300 300 299 299 299
301 300 300 299 299 299 299 299 300 299 299 296 291 293 296 300 300 300 299 297 292 292 289 285 284 284 285 290 286 289 294 290 287 289 287 290 291 291 288 289 290 290 290 290 284 286 285 288 289 288 289 286 283 284 283 287 288 288 289 290 290 291 290 291 293 294 293 293 294 294 294 295 295 295 295 296 296 296 296 296 297 299 298 298 297 295 295
299 299 299 299 299 299 299 299 297 296 292 292 291 293 295 299 300 300 299 294 287 285 286 286 286 284 284 284 280 286 293 291 287 287 287 289 291 290 287 284 283 284 285 291 286 286 284 285 286 288 288 285 282 281 279 283 288 290 290 291 292 290 292 293 294 291 292 292 294 295 295 294 295 295 293 294 295 295 296 297 296 298 298 295 295 294 294
299 299 298 298 298 298 294 296 294 292 289 289 291 298 300 302 303 300 299 298 295 288 286 286 286 284 283 279 279 285 293 289 287 286 288 284 288 287 284 283 284 284 287 284 286 285 287 291 289 288 282 281 281 283 288 284 289 291 290 291 291 292 293 293 292 292 291 293 294 294 295 295 294 293 293 293 294 294 294 295 295 295 295 295 294 293 295
298 298 298 297 294 293 289 289 294 293 289 293 296 300 302 300 299 299 296 294 296 298 290 287 285 285 286 284 281 285 290 284 288 284 281 283 283 280 282 282 281 283 284 281 278 283 287 287 283 281 281 282 286 286 286 285 288 291 294 293 292 289 290 290 291 291 294 294 294 294 293 294 294 294 294 294 293 294 295 294 293 294 294 293 292 294 294
297 297 289 287 286 283 285 289 293 296 298 298 299 294 293 296 288 288 288 287 289 294 288 290 285 288 290 286 283 291 288 283 283 283 279 278 282 282 279 282 281 282 279 275 279 287 280 280 279 283 281 280 283 285 286 286 288 287 288 289 290 292 291 291 290 290 290 291 292 292 293 294 294 292 293 293 293 293 292 291 292 292 293 293 292 292 294
293 288 284 282 281 280 284 290 295 297 295 295 293 287 284 286 288 287 286 287 289 286 288 289 286 290 289 286 288 291 289 286 283 279 281 283 282 280 280 279 280 280 276 277 279 285 284 279 275 276 280 280 287 292 288 288 290 290 290 289 291 291 294 296 296 295 295 293 293 293 293 293 293 293 291 292 292 291 290 291 293 293 292 292 293 292 294
284 283 279 279 278 279 288 292 296 293 292 287 284 283 284 287 286 283 285 285 286 287 289 285 291 291 291 287 285 286 291 286 279 278 279 282 285 281 280 278 279 278 275 274 277 278 281 281 275 277 276 277 285 287 289 290 291 290 289 290 290 291 292 295 296 297 296 295 295 294 292 292 292 292 292 291 291 294 294 293 291 291 292 292 290 293 293
283 283 280 277 281 284 288 291 289 286 284 284 286 287 286 285 287 285 285 284 282 283 288 287 287 286 289 290 288 285 293 290 286 284 281 282 283 282 278 278 280 278 273 274 278 276 275 276 273 277 279 279 281 288 289 290 290 290 290 290 291 290 292 292 293 294 297 297 296 295 293 292 290 290 290 289 290 288 289 288 290 290 292 294 293 292 291
285 285 285 287 291 292 291 287 281 283 282 283 281 280 283 285 283 281 281 280 281 278 282 286 282 282 285 288 289 290 289 291 283 280 281 279 284 280 277 276 277 276 275 278 278 273 276 276 273 273 277 281 281 285 290 290 290 290 291 290 291 290 291 292 292 292 292 293 291 290 289 290 290 289 289 289 290 290 290 291 293 290 291 291 291 291 292
296 295 293 289 287 284 282 280 280 280 278 279 276 275 275 276 278 279 279 281 284 286 286 290 288 289 289 290 287 289 286 285 286 282 281 279 280 277 275 275 275 276 279 277 275 274 274 274 273 275 280 281 283 288 290 290 289 289 290 289 290 290 291 291 292 291 290 290 290 290 289 290 290 290 290 289 289 291 290 290 290 291 290 289 290 289 290
289 290 288 283 281 279 280 278 282 282 278 277 274 273 274 275 278 279 281 283 284 285 288 289 287 286 283 286 286 286 285 288 285 281 282 279 279 276 275 276 278 279 280 274 275 277 275 273 277 280 282 282 287 287 288 289 289 289 290 291 290 290 290 290 291 292 292 289 290 289 289 289 289 290 289 289 291 291 289 288 289 290 290 291 290 289 289
282 280 278 277 277 279 279 274 280 276 273 274 280 275 274 276 279 281 282 285 288 289 290 288 286 286 285 289 287 285 284 283 283 281 279 279 277 275 275 277 276 272 274 275 271 271 275 276 279 279 280 283 288 289 288 288 289 292 291 290 292 292 291 291 291 290 290 290 291 290 290 289 290 289 288 289 289 291 291 292 291 291 293 293 291 291 291
279 277 276 275 273 276 276 272 276 276 276 278 280 279 278 280 282 285 289 291 288 289 289 289 287 285 284 286 284 285 281 280 280 281 277 275 275 276 275 277 275 273 272 267 271 274 274 278 278 279 280 285 288 289 288 288 288 289 292 292 292 291 292 292 291 291 290 290 290 290 289 288 289 290 290 290 289 290 291 291 292 293 294 294 293 293 294
280 280 275 274 273 273 278 276 274 277 281 282 284 285 285 286 285 287 289 288 287 288 288 287 287 287 284 282 283 283 277 278 281 280 278 279 276 276 276 277 276 271 272 271 270 268 272 278 278 280 281 283 287 288 289 288 288 288 290 290 291 292 293 293 293 293 291 290 290 291 290 289 288 288 290 291 290 288 289 291 294 292 292 293 293 293 293
278 277 276 274 270 273 277 275 279 281 281 282 283 285 286 285 283 284 285 284 287 286 286 286 284 282 283 282 284 282 280 278 280 280 279 278 277 273 270 270 269 269 271 275 272 272 277 278 280 282 283 286 289 290 290 288 288 288 288 289 291 292 293 292 292 291 290 290 291 292 291 289 289 289 289 289 290 291 290 290 290 290 290 292 293 291 291
278 275 276 272 273 275 274 276 279 280 282 283 282 283 283 283 283 285 287 285 285 287 287 286 280 282 283 282 282 282 282 283 279 279 278 275 275 271 270 271 268 273 273 273 277 278 279 282 283 283 284 289 289 291 290 290 288 288 289 291 292 293 293 293 291 291 292 291 290 290 291 291 289 288 288 290 290 291 289 289 289 290 290 291 293 295 294
279 275 277 276 275 273 276 278 279 279 281 282 281 280 281 282 283 285 286 287 286 286 283 286 284 284 283 284 280 280 281 281 280 280 274 273 273 271 270 269 268 270 275 281 280 283 285 285 285 286 288 287 288 289 290 289 288 288 288 289 290 290 291 291 290 292 294 293 291 292 293 292 290 288 291 292 290 290 289 291 291 290 290 290 291 293 294
278 278 276 275 276 273 278 273 273 275 278 280 281 281 282 282 282 283 284 287 286 281 278 281 280 280 278 277 277 278 280 283 280 276 275 277 275 270 270 271 272 274 281 284 284 284 286 287 285 286 286 287 287 287 289 288 289 289 289 290 289 289 291 293 293 293 293 292 292 291 294 293 292 290 287 287 288 290 290 289 288 288 290 289 289 291 293
275 274 273 274 278 278 279 278 277 278 280 281 282 282 284 282 283 286 287 286 283 282 280 280 281 279 276 277 278 280 283 283 279 276 276 278 277 275 274 276 281 283 284 284 285 287 287 288 285 286 287 287 287 287 287 288 289 289 289 289 290 291 292 293 292 292 293 294 295 295 295 293 290 288 287 288 288 289 289 289 288 289 289 289 288 289 292
Wind_Speed
20 21 23 23 25 24 25 27 28 26 27 12 10 6 3 3 3 5 5 5 2 2 3 3 2 3 6 9 10 10 7 4 3 5 2 3 1 2 3 3 2 1 1 2 2 4 3 4 3 3 2 4 12 4 14 11 8 4 2 3 5 5 2 2 2 1 1 2 1 8 10 10 5 4 4 9 11 7 6 5 5 7 1 1 1 1 5
20 20 21 23 24 24 25 26 27 26 24 12 9 4 4 4 4 5 3 2 2 2 4 5 6 7 8 8 11 9 6 2 7 4 6 5 4 3 3 2 0 3 2 1 2 2 2 1 1 2 0 2 6 9 11 11 8 8 5 5 3 3 2 2 1 5 3 4 4 2 2 6 5 7 3 7 6 5 3 4 1 4 5 6 6 4 5
19 19 20 23 24 24 25 25 25 26 25 18 6 4 4 4 3 4 5 4 2 1 2 4 6 8 11 13 13 12 3 2 8 9 8 4 3 4 2 4 1 2 2 2 4 6 4 1 2 0 2 3 0 9 10 13 8 10 3 4 3 2 2 3 2 9 9 8 10 11 10 13 4 3 5 5 10 12 4 3 0 4 1 4 3 4 10
17 18 19 21 22 24 24 25 26 24 25 23 5 4 3 4 5 4 4 4 5 0 1 2 3 8 9 10 7 7 10 9 8 5 6 3 4 4 4 5 5 4 4 3 2 3 3 5 1 2 3 2 2 3 7 11 5 11 15 5 5 1 2 2 4 7 10 9 2 1 5 4 3 5 9 6 5 8 7 5 4 4 3 5 7 5 5
17 16 18 19 21 23 23 23 24 24 25 24 6 3 2 2 2 4 7 6 1 4 2 3 5 7 8 6 6 11 13 10 8 2 3 1 3 4 2 3 7 5 7 3 2 3 2 5 2 2 2 2 3 4 1 5 9 15 12 10 1 1 2 3 5 5 7 8 7 9 11 9 6 10 10 9 8 5 7 7 8 4 8 3 4 4 2
16 17 18 18 20 20 24 23 23 24 23 26 5 2 3 3 1 1 1 3 5 9 5 8 10 12 9 4 4 9 13 12 9 8 2 5 3 3 1 2 8 9 7 8 3 5 3 1 1 5 1 3 4 2 4 8 13 13 4 5 5 2 3 4 3 5 5 3 5 13 10 8 8 11 9 8 6 8 8 7 5 6 4 9 3 5 3
15 16 17 17 18 19 20 23 22 23 24 19 3 3 3 1 1 3 3 4 5 6 11 14 11 12 8 4 5 10 11 13 8 3 8 6 3 3 5 8 10 10 6 4 2 3 3 2 1 0 4 5 4 3 2 2 6 5 3 0 2 1 4 3 2 1 2 1 5 6 14 6 9 10 13 10 10 13 13 8 4 9 4 5 3 6 9
14 15 16 16 16 19 19 21 21 21 23 12 4 6 4 4 4 4 3 5 8 9 6 6 8 7 8 6 6 9 11 13 14 7 3 8 7 4 7 7 12 10 4 2 2 1 1 1 3 3 5 10 2 2 2 2 3 4 3 0 1 3 5 1 0 1 2 3 4 2 13 11 8 6 7 10 11 7 2 4 2 4 1 0 2 3 6
13 14 15 15 15 17 18 19 20 18 17 5 6 4 5 3 2 4 7 9 4 5 5 6 7 5 4 5 7 9 9 12 13 15 8 8 5 7 12 13 14 7 3 5 7 6 3 4 7 8 7 5 2 4 0 4 1 1 1 1 2 1 4 1 2 2 2 4 3 3 7 12 8 5 5 6 7 7 3 5 6 4 4 1 2 1 5
12 13 14 14 15 16 17 17 18 17 14 3 4 4 4 3 4 5 4 4 5 7 6 6 5 2 3 5 12 7 12 14 13 10 3 1 4 8 10 13 10 8 8 8 4 2 6 8 9 9 8 9 10 5 6 3 1 1 0 1 3 1 1 2 1 3 1 3 2 9 7 8 6 5 7 9 2 1 1 1 1 3 8 6 3 8 5
12 12 13 14 14 15 16 17 15 17 8 6 6 4 5 5 5 3 2 5 2 1 8 6 3 3 7 8 12 12 12 13 12 6 5 4 7 6 10 12 10 6 8 6 4 6 7 10 12 7 8 9 8 6 5 6 5 3 1 1 1 1 2 3 0 2 1 2 2 4 9 6 3 2 2 4 2 8 6 3 6 4 4 4 6 3 2
12 12 12 13 13 13 14 15 15 15 10 3 3 4 3 4 6 3 3 4 5 2 5 7 7 7 11 14 9 12 14 15 14 10 11 8 13 13 11 9 6 7 3 5 10 12 12 6 6 3 5 6 7 5 6 4 4 3 4 1 1 1 1 1 0 2 2 2 3 8 5 3 2 2 3 2 2 2 3 3 1 4 1 1 1 2 2
12 12 12 12 12 12 13 13 14 13 11 5 3 5 4 5 4 3 4 4 6 8 10 9 10 13 12 11 14 13 13 15 13 13 11 10 10 9 5 5 6 5 9 14 13 9 5 2 1 3 4 5 4 4 5 4 4 3 5 5 3 1 1 2 2 2 2 3 2 5 2 3 2 2 3 4 2 2 2 5 3 1 3 1 0 1 2
14 13 12 12 12 11 12 12 13 12 13 8 4 4 4 4 5 3 3 4 7 5 7 13 9 8 10 12 11 15 12 11 12 6 5 4 8 11 10 4 6 10 10 7 6 3 1 3 4 4 4 3 6 6 2 5 6 4 5 5 6 4 1 2 2 1 4 2 3 3 3 2 3 2 3 2 1 1 2 5 0 1 0 3 3 2 4
14 13 12 12 12 12 11 12 12 12 10 10 4 4 4 3 3 3 3 3 7 11 5 4 8 12 13 12 10 13 8 10 12 11 10 7 3 4 8 12 10 10 5 2 3 3 2 1 5 4 2 4 4 2 4 1 4 3 3 1 3 5 5 3 4 2 4 7 5 3 4 1 3 2 2 1 2 3 3 3 1 3 3 3 5 7 6
14 14 13 13 13 12 12 11 11 11 10 7 3 4 4 2 3 2 3 2 5 8 3 6 5 9 10 10 10 9 8 10 9 12 9 4 5 14 12 7 12 7 2 2 2 2 3 4 3 4 2 1 0 2 2 3 4 2 2 2 3 2 1 0 6 3 3 5 6 2 3 1 3 4 5 4 2 4 3 4 1 2 3 1 4 8 7
14 14 14 14 14 13 13 11 10 10 9 9 3 4 3 3 2 3 3 3 3 9 9 11 9 5 6 8 3 1 4 7 10 8 9 11 13 12 13 15 9 2 5 1 4 4 5 6 3 3 1 0 2 1 1 2 2 5 8 4 7 4 4 4 7 4 2 5 5 2 2 2 1 3 5 4 2 2 3 4 3 2 3 2 4 8 10
13 14 14 15 15 13 13 10 9 10 10 9 2 3 5 3 2 2 3 3 5 7 3 2 2 3 3 2 7 4 3 5 5 6 5 9 8 6 12 10 10 6 3 5 4 5 4 4 3 3 3 1 0 0 1 1 2 1 3 3 3 5 4 6 4 3 2 7 1 1 2 3 3 4 7 5 1 2 6 5 1 2 2 2 5 6 7
13 14 15 15 14 13 13 12 10 9 10 9 2 3 2 2 3 1 2 3 3 8 4 2 3 7 7 3 7 4 3 5 7 7 8 8 1 8 15 5 2 7 8 4 4 4 3 1 0 1 2 2 3 1 0 1 2 1 1 3 2 3 1 0 3 6 3 1 6 1 2 3 3 5 6 4 1 3 5 2 2 1 1 1 6 8 7
14 14 15 16 16 15 14 13 10 8 9 10 4 1 5 3 3 2 2 4 3 10 13 12 7 10 2 3 3 4 4 5 4 4 3 6 5 15 7 3 2 4 6 3 6 2 3 3 2 0 3 1 1 1 2 1 0 0 0 0 2 1 2 1 1 1 1 4 5 2 3 1 1 10 3 3 3 2 3 2 2 2 1 3 3 7 9
15 16 15 17 17 17 15 13 10 8 10 11 5 2 4 2 3 2 4 4 6 10 10 1 4 11 6 8 9 8 7 10 6 4 5 6 7 6 5 3 7 5 4 4 4 3 2 3 2 1 1 1 2 1 2 1 1 0 0 1 1 1 2 0 1 3 3 2 2 1 3 4 3 2 3 3 0 1 2 2 3 1 1 1 5 6 8
17 17 17 16 17 17 15 13 10 8 10 11 8 1 4 1 2 2 4 3 6 9 9 7 6 14 15 14 15 13 14 15 16 9 7 7 1 3 5 7 7 3 2 3 2 1 2 1 0 2 2 2 1 1 1 2 1 2 1 1 2 2 0 2 2 1 2 1 2 2 3 4 4 1 1 2 4 2 2 2 2 1 2 2 2 7 6
16 17 16 15 15 16 14 12 9 9 11 11 8 1 5 4 3 2 2 6 6 9 11 14 11 13 13 13 17 16 15 14 13 9 9 5 5 2 5 5 3 2 2 2 3 3 3 3 2 1 1 2 1 0 1 1 2 2 1 2 2 1 1 1 1 0 0 0 2 2 2 1 5 3 3 3 4 5 1 1 4 4 2 3 3 3 5
15 15 15 14 15 15 13 10 9 11 12 12 8 3 3 2 3 3 2 4 4 10 9 4 3 5 2 4 2 5 7 7 11 13 8 8 4 4 3 6 3 3 0 3 1 3 3 1 2 0 1 1 1 2 2 4 1 1 1 3 3 1 0 1 1 2 2 2 3 4 3 3 3 4 4 2 2 2 2 3 2 5 7 5 3 5 4
14 15 15 14 14 14 11 10 11 11 12 13 9 3 5 5 2 2 2 4 3 3 6 8 7 11 6 5 8 7 7 8 5 8 9 11 11 5 2 0 1 1 5 5 2 1 1 0 1 1 1 1 1 1 1 1 1 0 2 1 2 1 1 1 1 1 3 1 2 4 3 2 3 2 5 5 8 7 3 2 3 4 4 3 4 0 3
15 16 15 14 12 11 10 11 12 13 13 14 11 5 5 5 2 3 2 4 4 3 5 6 10 6 3 10 8 4 3 3 7 9 12 15 15 14 7 4 4 3 3 3 2 0 1 0 1 1 1 1 1 1 1 0 1 0 3 0 1 3 3 0 1 2 0 2 2 5 1 3 4 4 1 2 3 7 6 4 2 2 3 3 4 3 1
16 16 15 12 11 10 11 12 13 15 15 13 8 4 5 5 5 6 5 4 3 3 3 6 8 12 7 16 11 4 3 2 4 8 9 11 11 9 7 7 7 4 4 5 2 1 1 0 0 1 1 1 0 0 1 1 0 1 1 3 1 2 2 1 1 3 3 1 1 3 2 1 5 6 5 7 5 4 5 3 4 4 3 2 3 4 4
16 14 12 10 10 11 11 14 15 15 14 14 6 5 6 7 5 7 7 7 5 2 5 6 9 16 15 10 5 4 7 5 5 7 7 8 9 8 8 8 4 4 2 2 4 2 2 3 2 1 1 3 1 1 0 0 2 3 2 2 0 3 1 1 2 3 1 1 2 2 1 1 5 5 6 5 4 4 4 5 4 4 2 1 1 3 4
15 12 10 10 11 12 13 15 16 14 14 7 5 7 5 3 3 4 6 6 4 3 5 8 10 6 2 9 10 8 3 2 3 6 6 6 8 7 7 6 5 2 0 0 1 1 2 4 1 1 2 1 2 1 1 1 2 1 1 2 0 2 1 2 2 2 2 3 2 2 2 0 1 4 4 5 5 3 2 3 2 3 3 1 1 1 2
13 11 11 11 12 13 15 15 15 14 12 4 4 2 2 2 2 3 4 5 5 2 3 5 7 5 4 4 6 4 4 3 3 4 5 5 5 7 6 5 4 3 2 1 0 3 2 1 2 2 2 1 0 0 1 1 1 0 3 3 3 3 2 3 3 2 1 1 0 2 3 4 5 4 3 3 4 4 3 5 5 4 4 3 4 4 4
12 12 12 13 14 14 15 16 15 13 9 2 2 2 2 1 1 2 5 4 5 2 2 3 8 7 8 3 3 8 8 6 2 2 4 6 5 5 4 4 2 4 1 1 0 3 0 2 1 2 1 1 3 1 2 2 0 3 1 3 3 3 3 3 2 3 4 5 3 1 0 2 3 1 2 7 8 6 3 3 4 4 4 6 6 4 4
12 13 13 14 14 16 17 18 16 12 4 3 3 3 1 1 2 3 6 4 2 2 2 6 6 3 3 6 3 3 4 4 0 1 0 3 2 3 4 6 3 4 3 2 2 0 2 3 0 2 1 0 5 3 2 3 1 0 3 5 4 3 2 2 3 2 2 2 1 0 2 3 4 2 1 4 5 4 3 3 3 4 6 6 5 6 5
13 13 14 15 18 19 19 17 16 11 5 7 13 17 18 20 15 9 7 3 3 2 2 2 3 3 3 7 8 5 2 1 0 1 1 1 2 2 1 1 1 0 3 0 1 1 2 1 0 1 0 1 1 1 2 1 1 2 3 5 4 4 4 3 2 1 2 4 1 1 2 2 1 2 2 3 2 4 4 4 3 5 8 9 9 7 6
14 15 17 18 18 19 18 18 17 14 10 5 6 5 4 9 10 15 8 4 3 2 0 1 3 3 7 4 5 4 2 3 3 1 1 1 1 1 1 1 0 2 2 3 3 1 2 0 1 1 1 2 1 1 1 1 2 3 3 2 2 3 2 2 4 5 5 4 3 2 1 1 0 0 3 5 6 5 3 4 4 8 8 8 7 5 2
16 16 17 19 18 18 18 13 5 4 4 3 4 5 4 9 9 5 9 7 3 1 1 2 1 4 6 5 3 6 2 3 3 1 1 1 0 1 1 1 0 1 1 1 0 0 1 1 1 1 1 2 2 1 1 2 1 2 2 4 4 3 1 1 2 4 3 3 4 4 3 2 4 5 5 5 6 6 6 7 6 6 8 6 5 5 4
15 17 19 20 19 11 1 1 1 3 2 4 4 1 8 11 2 5 7 1 1 1 1 1 1 3 2 4 5 6 4 3 1 2 1 0 1 1 2 1 0 2 0 1 2 1 0 0 0 1 1 3 0 1 1 2 1 0 1 1 2 0 1 2 2 3 3 4 6 5 6 7 8 4 4 4 5 6 5 7 9 5 5 5 4 3 4
17 19 18 12 3 3 0 1 1 3 3 3 9 14 7 4 4 4 2 1 2 0 2 2 4 4 4 4 2 6 5 5 5 4 2 1 1 2 1 1 1 2 0 1 1 1 1 2 2 1 1 1 1 2 2 2 2 1 1 1 3 2 1 1 2 3 6 7 8 6 5 6 5 5 5 6 5 5 9 9 6 5 5 4 4 4 1
17 12 3 3 2 1 1 1 2 3 11 14 9 1 1 1 0 1 1 0 2 3 2 2 6 2 0 1 6 4 2 5 2 2 4 1 0 0 0 0 1 0 1 1 1 1 1 5 2 1 0 3 4 4 2 2 3 3 3 3 4 3 2 1 2 3 3 3 4 3 4 6 5 4 4 5 5 6 4 1 2 3 3 3 3 3 4
6 1 2 3 2 2 1 0 4 13 8 3 0 0 1 0 0 0 1 1 0 3 2 4 4 3 4 5 8 2 3 3 5 3 1 1 1 3 1 0 1 1 1 1 2 2 0 2 2 3 0 2 2 1 1 1 0 0 1 1 1 2 2 4 4 5 6 4 1 0 1 4 4 2 1 2 2 1 2 3 4 4 3 4 4 4 4
4 5 1 2 0 2 2 4 10 7 0 1 1 1 0 0 1 2 0 1 2 1 2 4 3 4 7 8 3 7 0 3 1 3 2 7 0 0 1 1 1 1 1 0 3 3 1 0 1 2 2 2 2 1 0 2 3 2 2 3 3 3 4 5 5 5 6 4 3 2 2 2 2 3 2 2 4 5 6 5 4 4 5 4 4 4 4
2 1 1 1 3 2 4 6 4 0 0 0 0 0 0 1 2 1 1 1 2 4 2 3 1 2 3 3 3 7 5 0 2 1 1 2 3 1 1 0 0 0 1 0 1 1 2 2 2 1 2 2 2 2 2 3 2 1 1 1 2 2 4 4 4 2 3 5 4 4 3 3 3 3 3 3 3 3 3 3 3 4 4 5 6 4 3
1 1 3 3 5 6 5 1 0 0 0 0 1 1 2 2 1 1 1 1 2 1 2 2 1 2 4 9 7 4 5 2 1 1 0 1 1 0 1 1 1 0 0 1 0 2 1 0 1 3 3 3 3 2 2 3 1 3 1 1 1 1 3 4 4 4 3 4 4 3 3 3 3 3 1 3 4 3 4 5 6 5 4 2 2 2 3
7 6 0 1 2 1 0 0 0 1 1 0 1 1 1 0 2 2 1 2 1 0 1 1 2 2 3 1 2 4 4 1 0 1 0 2 1 2 1 0 1 0 0 1 1 1 1 0 1 4 4 3 2 3 3 4 3 2 1 1 0 1 0 3 4 3 3 3 4 4 3 4 3 1 0 1 2 3 2 0 1 2 2 2 2 2 3
1 1 1 0 1 2 0 0 0 1 1 0 1 1 0 1 2 1 1 1 1 1 1 3 4 4 4 2 1 2 2 1 1 0 1 0 1 1 1 0 0 2 0 2 2 0 1 2 6 2 1 3 2 3 3 3 4 3 2 1 1 1 2 3 3 4 3 3 2 1 2 3 3 3 2 2 4 4 4 3 2 2 2 1 3 2 2
1 1 1 1 0 1 0 1 0 1 2 1 1 2 1 1 2 1 1 1 1 4 2 0 0 1 5 6 1 2 0 2 1 1 2 0 0 0 0 1 1 2 1 0 1 1 1 1 3 2 3 2 4 4 4 3 4 6 5 1 1 1 1 3 2 2 1 2 1 1 2 2 3 3 3 3 3 1 2 3 3 5 4 3 3 3 3
2 0 1 2 3 1 0 1 0 0 1 2 1 2 2 4 2 5 4 0 2 5 5 5 3 1 4 3 1 2 1 1 2 1 0 1 1 1 1 0 1 1 1 2 1 1 2 4 3 3 3 3 3 4 3 3 2 3 6 5 4 3 0 1 0 1 2 2 1 0 1 1 1 1 1 2 2 3 3 3 3 3 3 3 3 2 2
0 0 1 1 1 2 0 1 1 1 0 2 2 2 3 5 5 6 4 1 4 4 4 3 4 3 2 3 2 3 1 1 1 2 1 0 1 1 1 0 1 0 1 0 2 3 3 4 4 5 4 2 2 3 3 3 3 4 3 3 4 2 1 1 1 2 2 0 0 0 1 0 0 0 0 1 2 2 2 3 3 3 3 2 1 1 2
0 1 1 0 2 1 0 2 1 4 3 5 4 2 4 2 2 4 4 3 4 1 2 3 3 2 1 1 1 2 3 1 1 2 0 1 1 1 1 2 0 1 1 0 2 4 4 4 5 5 3 2 3 4 4 4 3 4 3 3 4 3 3 3 3 3 2 2 3 3 2 2 1 1 1 0 0 2 2 2 3 3 3 2 2 2 2
1 1 0 1 1 1 2 2 4 5 5 2 3 2 4 5 4 6 7 1 2 5 3 2 2 1 2 1 0 1 1 1 1 2 2 2 0 1 0 0 0 1 0 2 3 4 4 6 7 5 2 1 2 3 2 1 3 4 5 5 5 6 4 4 4 3 3 2 2 1 2 2 0 1 0 1 1 2 2 2 3 3 3 3 2 2 2
0 1 0 0 2 2 3 1 0 3 4 5 4 5 4 4 5 7 2 2 3 1 1 1 1 0 1 0 1 1 1 1 0 1 1 1 0 0 0 0 1 1 3 3 3 7 8 7 6 3 0 1 1 2 3 2 3 3 3 3 3 3 4 4 4 4 4 3 3 2 2 2 1 1 0 1 1 0 1 3 3 3 3 3 2 1 2
0 0 2 3 3 3 1 3 1 3 5 5 4 5 4 6 4 5 1 2 4 3 4 1 1 1 0 1 1 0 0 0 1 1 1 0 0 1 1 0 3 3 6 7 7 7 8 8 6 5 2 1 2 2 2 2 2 3 2 1 1 1 0 0 1 1 2 1 1 2 1 1 0 1 1 1 1 1 2 2 2 2 2 3 2 1 1
0 0 1 2 2 3 3 2 1 5 6 7 5 4 1 3 4 6 3 2 2 5 2 1 0 1 1 0 0 1 1 1 0 1 3 1 0 1 2 4 7 7 7 8 9 8 7 6 4 3 3 3 2 1 2 2 2 1 1 0 1 1 1 1 2 2 2 0 0 1 1 0 2 2 2 2 1 1 3 3 2 1 1 2 2 2 2
Wind_Direction
348 354 357 356 351 347 345 345 346 347 345 346 350 324 317 19 252 262 313 320 170 182 225 238 270 281 277 282 276 279 284 260 299 313 319 324 165 285 255 254 276 241 211 199 243 200 232 180 214 197 179 215 211 196 188 179 152 123 211 180 225 172 273 281 303 342 323 342 349 151 160 160 147 213 156 166 193 172 168 163 183 175 255 345 322 264 250
346 350 355 358 354 349 347 346 347 346 347 342 325 320 336 310 293 310 302 356 330 294 353 327 327 314 301 311 284 279 256 279 311 294 312 328 325 311 306 270 164 305 204 257 270 3 8 351 348 332 229 268 220 178 190 163 174 171 215 175 193 155 277 123 68 105 66 33 36 81 190 164 193 192 191 189 163 177 157 110 109 151 224 169 125 226 284
345 347 355 359 355 352 349 347 347 347 342 347 327 320 311 284 243 234 292 352 36 72 2 296 310 326 320 332 320 335 306 251 287 306 308 326 293 321 266 294 238 209 186 260 254 270 204 300 225 179 281 253 228 179 164 185 174 200 194 222 148 153 193 136 129 145 153 165 176 187 188 193 167 145 148 187 166 191 122 221 30 158 248 130 152 254 256
344 347 353 360 358 354 351 349 347 346 341 343 352 319 324 11 358 323 318 349 13 129 195 200 306 313 330 328 315 320 325 327 335 291 288 254 279 224 286 303 292 313 308 266 228 279 200 182 241 140 261 306 322 97 169 186 179 198 215 214 119 231 157 131 153 161 183 191 179 359 76 69 133 171 168 192 204 191 163 111 113 194 198 185 227 185 286
345 348 352 357 0 357 354 350 348 347 339 341 353 322 137 273 59 328 334 324 166 339 314 339 342 322 320 315 314 331 339 323 313 71 305 24 318 300 248 296 358 337 326 323 277 263 256 210 244 277 308 258 270 316 66 184 207 212 208 215 69 243 315 240 180 206 212 177 165 170 152 167 165 154 189 186 185 166 157 155 204 180 106 274 266 194 177
344 347 352 352 358 0 356 352 348 350 342 340 16 35 344 38 301 260 81 294 312 333 329 346 320 310 311 274 285 331 331 339 337 317 209 314 287 281 220 243 355 346 326 322 313 332 333 27 330 330 307 332 315 26 133 162 212 212 230 174 205 195 233 272 153 248 200 218 183 157 154 155 159 164 159 183 185 151 173 208 206 139 194 212 252 156 193
341 345 349 352 355 1 360 354 351 353 344 341 357 25 354 18 325 267 345 316 294 287 285 302 303 307 307 287 322 332 334 330 330 297 310 320 303 351 320 333 330 332 317 330 300 302 22 329 136 326 324 351 326 85 100 205 204 202 243 143 175 100 258 242 196 278 55 259 193 190 146 145 147 159 172 168 152 178 184 198 190 181 227 215 188 171 224
337 343 348 352 352 356 4 358 353 353 347 338 14 48 1 26 342 332 312 247 287 291 292 294 308 312 320 336 332 334 325 325 327 333 331 312 309 337 321 314 324 330 320 288 234 158 106 340 314 350 9 324 322 50 89 194 187 170 220 210 293 144 275 104 245 76 12 345 125 196 141 143 151 170 161 161 168 146 130 111 125 81 20 345 116 155 269
332 341 348 350 351 353 3 3 356 354 352 3 6 37 32 313 267 289 308 314 289 298 308 316 318 305 324 344 329 329 322 319 326 305 286 255 285 334 323 325 320 319 275 265 243 246 177 209 243 264 280 267 320 37 289 18 163 214 164 312 317 93 265 79 51 79 347 2 114 162 147 139 132 125 128 131 130 132 191 138 199 153 198 174 101 36 274
331 338 346 349 350 353 359 5 2 358 359 354 335 15 338 313 282 285 290 284 304 314 308 305 318 310 8 344 323 327 312 310 324 315 268 310 317 297 315 314 310 299 307 297 255 287 300 275 254 251 241 239 262 260 263 319 267 37 242 193 263 249 72 342 354 81 316 314 139 124 100 83 118 189 195 176 134 122 137 0 152 199 144 119 143 229 225
329 333 340 347 350 353 355 1 9 358 1 7 357 339 341 345 334 314 268 286 268 305 330 308 335 279 327 326 318 317 309 314 319 322 305 318 270 253 297 299 303 291 289 264 269 294 272 283 277 246 230 236 240 239 256 261 226 194 139 335 316 55 40 285 154 129 182 24 82 103 97 134 223 238 185 155 164 157 144 205 194 208 144 198 190 207 207
328 328 332 343 347 351 354 358 5 3 357 333 330 315 319 316 307 282 318 314 286 331 313 292 303 305 317 309 315 310 314 316 310 293 277 276 283 295 294 287 286 293 251 286 311 308 294 200 207 200 226 215 221 221 220 241 272 195 219 211 326 61 94 250 146 96 115 26 69 82 126 219 243 277 241 210 147 181 138 93 227 190 207 336 318 348 120
325 321 324 333 341 347 351 352 3 6 358 342 340 337 312 323 306 325 305 292 291 325 328 307 302 287 280 298 313 311 310 299 292 295 279 270 288 297 280 286 292 270 316 313 318 324 10 341 332 142 122 128 98 60 2 319 285 242 193 215 218 227 175 189 27 77 62 49 43 99 209 238 291 299 104 178 106 136 118 57 15 83 206 194 105 105 116
326 319 315 318 331 343 344 348 354 5 354 350 333 320 312 328 339 320 321 325 290 268 290 296 289 302 326 321 317 311 310 306 312 289 302 311 299 291 291 252 268 288 296 306 305 340 350 32 42 26 4 44 95 93 302 302 276 301 287 219 207 174 51 94 74 25 140 163 105 138 304 24 14 24 36 30 24 0 134 159 279 56 234 151 165 144 130
329 323 314 312 318 328 339 339 350 2 0 357 326 310 319 320 325 316 297 271 298 298 273 251 325 322 318 312 328 323 323 328 335 329 312 282 260 235 278 289 295 296 300 289 338 40 92 76 45 60 16 56 107 174 298 299 293 233 194 201 184 187 185 234 101 345 108 119 70 17 25 60 285 234 264 244 211 239 203 107 78 318 301 185 151 145 143
328 328 320 313 311 315 328 335 335 348 357 4 319 313 297 310 297 273 311 285 308 305 246 213 305 309 307 308 316 315 321 324 329 311 319 319 302 329 319 316 310 309 280 103 83 81 31 87 149 72 63 111 196 110 221 331 330 306 33 102 110 61 68 105 111 153 46 51 106 149 118 257 218 277 291 300 258 227 166 83 79 274 292 249 182 151 151
325 326 325 319 310 310 315 328 326 338 357 2 340 305 294 333 342 321 312 288 214 251 288 299 291 270 300 304 329 16 344 330 338 350 335 333 326 319 307 330 312 340 359 83 8 53 36 52 70 109 70 321 100 183 352 31 325 323 331 17 27 28 354 18 54 49 70 133 87 78 206 93 359 277 287 291 280 159 68 125 251 261 282 236 187 172 165
323 323 325 325 318 311 307 321 321 326 344 3 40 332 289 304 283 325 293 281 306 280 251 239 53 311 283 259 298 294 273 293 296 287 249 290 298 329 331 334 337 325 54 67 0 61 53 58 59 87 84 302 143 18 125 176 5 306 321 320 336 352 347 40 124 124 68 85 85 8 338 287 268 269 292 314 212 76 93 178 233 240 235 238 192 187 177
318 322 324 327 326 317 306 315 319 318 343 0 8 274 258 257 289 259 301 273 260 268 218 292 344 274 264 279 251 269 265 287 297 307 310 324 17 329 308 259 274 344 353 27 28 59 72 10 78 104 112 327 22 142 297 38 278 286 16 15 3 354 74 335 63 39 61 119 100 164 230 242 266 290 285 277 34 79 168 233 196 190 280 247 197 180 205
317 320 322 322 324 320 309 315 319 319 337 347 6 275 262 261 266 173 320 313 248 270 279 263 226 248 231 223 276 278 296 281 248 257 307 285 337 345 326 33 349 4 322 41 47 12 56 23 325 341 42 56 280 192 57 314 178 26 319 289 115 251 87 3 65 194 80 39 76 41 89 297 71 311 346 29 98 219 214 278 295 204 210 179 213 192 199
318 318 317 315 316 319 314 311 313 313 326 338 353 288 308 227 246 227 182 243 299 301 298 260 221 234 238 251 239 242 243 250 253 269 253 269 318 332 1 331 322 345 335 358 40 349 23 357 334 331 204 147 281 43 164 157 332 256 200 198 125 208 76 267 265 194 124 68 74 85 201 253 298 55 123 288 187 250 216 152 302 288 215 186 190 222 202
315 313 313 310 312 316 317 312 312 312 325 333 334 257 276 230 204 205 233 179 255 242 261 279 297 280 265 254 257 242 240 240 245 235 274 296 291 288 274 289 287 280 318 337 354 354 19 323 33 50 359 315 10 109 184 76 93 282 300 100 19 319 160 183 115 225 94 141 198 239 234 242 279 314 294 260 293 300 213 190 256 329 292 192 172 218 218
310 311 311 308 309 313 318 319 312 313 320 324 323 169 287 290 259 240 225 277 250 261 267 274 273 268 272 259 241 236 230 231 243 243 223 237 297 236 238 269 274 257 304 8 27 315 325 345 312 181 9 211 158 48 29 145 151 334 41 307 163 322 151 237 87 338 298 115 192 254 313 325 330 307 250 269 316 335 36 285 335 293 259 190 216 244 209
310 314 311 309 308 311 317 312 310 317 319 311 317 285 284 239 264 294 272 261 294 305 293 196 317 306 237 302 293 207 212 230 217 223 197 186 215 288 259 230 253 303 30 67 5 315 296 294 262 52 11 265 94 47 77 31 28 183 42 342 347 277 140 42 87 318 82 98 326 16 338 314 355 335 324 263 256 291 314 326 262 287 317 313 260 221 219
311 314 313 310 309 313 308 308 319 317 312 314 312 263 279 275 228 170 295 324 323 6 303 310 270 243 260 255 274 267 212 209 186 186 180 199 209 207 244 303 228 328 318 327 318 10 48 1 333 32 68 289 97 345 223 104 0 114 65 296 359 355 149 52 48 46 87 156 292 304 275 244 265 282 5 353 337 334 316 247 256 269 290 289 311 175 172
312 312 311 311 311 313 313 315 314 313 314 312 316 301 282 269 209 185 209 261 260 263 295 308 282 296 301 322 311 255 259 198 176 175 188 196 207 220 246 337 316 38 341 308 329 222 214 35 112 210 76 326 100 120 282 252 170 297 117 188 243 263 1 92 306 91 310 311 320 339 21 34 12 11 12 285 282 306 319 327 329 4 13 349 3 40 149
308 308 310 312 315 315 315 311 311 315 318 318 310 285 265 258 211 189 209 213 270 289 197 256 283 299 352 313 291 294 267 201 172 186 196 203 213 227 241 265 283 333 0 323 357 110 65 83 118 286 185 253 97 119 180 2 64 60 26 283 335 48 18 284 57 55 28 68 308 357 72 317 319 334 328 325 322 318 297 336 14 357 358 5 46 11 29
306 311 310 309 313 312 310 311 314 319 324 321 319 292 263 262 227 204 201 193 195 261 293 286 302 297 305 273 252 248 275 251 200 191 192 201 204 210 221 235 250 281 302 30 343 356 6 2 296 246 248 292 28 321 6 22 65 32 14 296 96 98 229 108 80 144 89 255 259 245 201 231 243 253 299 314 325 335 357 18 334 315 311 301 92 66 37
310 311 311 311 309 308 309 312 318 325 324 335 341 311 286 221 292 184 186 180 219 294 278 277 274 289 300 298 315 308 272 204 182 189 189 190 191 200 212 211 212 176 258 15 181 190 202 237 216 230 321 220 112 296 37 351 46 85 256 283 319 249 178 177 186 168 258 245 253 181 154 35 292 287 300 320 334 337 328 345 335 312 307 343 50 77 123
310 306 306 305 307 308 311 316 320 322 319 11 3 353 3 82 96 99 161 157 172 219 291 326 321 272 297 306 289 288 295 277 243 173 173 173 183 195 201 190 213 207 223 224 150 304 242 254 277 277 280 298 155 137 71 210 80 264 270 303 293 315 300 246 189 158 86 119 243 209 205 261 259 260 282 309 350 359 9 358 347 349 12 43 59 43 47
306 303 306 308 310 311 311 313 313 308 316 55 38 11 31 32 78 87 161 165 177 246 275 216 254 296 309 243 287 294 299 309 268 153 187 178 189 184 183 166 209 147 182 307 248 228 127 290 358 300 324 68 114 91 169 126 14 318 316 325 302 327 340 329 275 245 283 301 299 261 266 295 306 295 343 15 357 4 4 357 4 28 51 57 48 67 57
311 309 311 312 311 308 307 307 305 302 280 174 203 181 181 118 77 140 171 142 12 301 287 310 304 316 298 298 261 250 281 281 156 98 128 126 190 176 159 183 204 206 172 169 213 1 238 220 171 277 33 110 86 104 75 81 113 207 297 323 317 312 313 333 351 338 313 276 195 39 359 344 7 81 316 322 335 339 23 39 22 36 58 69 63 58 61
314 313 311 308 305 305 305 300 297 293 247 239 239 255 266 267 251 230 230 288 326 240 238 272 275 298 284 284 318 297 232 331 28 28 285 204 149 133 150 257 148 2 231 125 281 229 206 131 207 26 309 47 89 105 91 122 188 238 250 275 295 307 316 319 320 315 357 9 28 180 206 231 311 325 279 290 326 4 1 20 5 48 47 46 38 37 40
315 313 308 304 304 304 302 298 294 286 280 269 273 249 248 246 253 247 207 149 236 276 281 281 295 302 280 326 353 284 10 6 283 28 19 298 181 111 201 95 234 149 232 178 255 21 317 48 228 265 319 21 56 77 42 286 256 266 285 283 299 315 316 347 28 17 357 345 4 51 100 163 145 12 31 26 12 0 15 33 36 57 46 47 31 19 3
313 309 305 304 304 304 303 302 282 199 224 248 252 268 248 278 253 207 165 159 155 274 228 248 203 304 323 330 340 279 328 7 332 312 92 288 126 199 220 78 314 65 304 93 28 77 289 259 177 84 274 328 43 29 254 258 295 331 3 18 353 351 22 28 8 5 344 351 32 28 16 18 51 34 6 2 14 2 27 30 24 67 59 34 23 12 24
311 308 307 308 308 308 28 316 109 129 187 230 237 274 316 335 79 140 171 259 324 219 205 264 170 252 201 288 305 288 342 332 272 327 215 257 4 58 94 124 10 258 159 99 221 340 216 281 55 288 315 61 84 190 263 209 214 293 338 333 297 87 248 226 277 9 37 41 51 40 45 44 58 27 9 11 11 16 31 35 14 34 76 66 40 22 34
311 311 314 319 330 108 279 184 272 217 199 225 282 290 286 121 64 94 95 299 268 283 260 314 277 230 185 256 271 275 7 318 331 340 335 25 263 291 40 37 245 279 82 358 5 29 302 17 103 60 18 114 299 245 236 198 187 121 41 285 301 316 321 2 178 121 65 51 46 39 39 49 40 23 31 24 11 18 38 31 10 25 29 24 7 20 15
316 324 23 35 38 6 292 231 168 309 316 303 308 13 12 342 198 335 78 175 253 173 241 222 255 291 163 222 259 261 13 273 51 2 308 237 95 299 35 124 244 284 285 249 254 197 10 39 35 92 273 253 258 268 269 205 220 232 254 307 337 348 325 180 136 73 63 36 22 8 25 44 43 16 40 19 22 40 40 33 28 38 59 47 33 6 349
346 358 43 45 96 231 191 126 336 318 303 261 44 83 297 110 23 288 218 228 286 216 219 211 250 185 200 237 266 270 201 280 326 23 0 275 91 307 14 71 299 61 329 17 289 36 60 348 350 23 303 309 17 83 314 211 6 319 302 294 332 3 34 49 50 88 100 114 144 207 146 117 104 42 0 49 26 80 90 52 43 31 35 26 15 21 25
31 24 7 348 104 240 282 302 327 319 163 54 330 104 236 220 138 262 1 144 237 232 169 233 219 214 207 220 268 311 170 110 161 300 245 304 185 221 265 97 268 88 295 88 262 35 100 272 285 43 304 276 242 271 262 102 79 15 37 51 53 64 71 80 69 53 85 81 81 64 37 66 91 119 116 56 43 34 16 24 28 20 29 27 6 34 30
22 3 11 274 267 305 306 320 338 44 69 71 346 318 12 273 212 194 117 263 262 238 206 203 324 298 247 223 200 250 282 166 240 103 126 251 256 92 49 284 236 76 319 327 289 63 73 81 356 173 235 240 222 215 166 87 88 65 47 57 70 75 88 79 60 31 93 87 62 54 42 55 71 79 77 82 73 53 14 355 28 20 19 26 21 352 311
192 209 220 236 278 282 304 309 84 53 6 155 130 257 228 257 16 339 170 182 250 227 281 163 258 228 254 180 206 200 274 198 153 121 133 305 305 139 221 322 357 87 233 235 96 52 71 115 320 297 268 262 263 256 160 132 190 140 142 26 24 59 90 94 82 38 44 91 94 70 39 58 62 51 60 76 68 50 23 15 7 15 24 321 302 338 358
292 295 171 330 332 319 202 1 288 113 151 218 52 307 332 19 221 186 269 255 290 104 273 182 240 253 280 114 288 204 216 211 236 279 103 249 295 56 80 12 44 55 179 341 62 51 42 207 233 254 260 270 256 221 204 162 167 145 99 39 22 328 52 98 97 87 51 84 101 116 126 100 78 27 237 128 97 48 27 93 300 314 322 348 5 3 347
148 116 208 338 344 286 110 109 202 55 339 105 116 219 282 313 310 5 4 288 301 317 334 11 320 51 304 277 223 302 337 313 87 39 299 325 78 316 44 272 247 263 6 40 37 77 225 225 211 214 254 282 264 222 209 158 138 122 91 40 26 60 85 84 85 89 70 55 52 48 68 62 49 25 33 34 42 44 6 354 348 328 314 15 41 16 328
65 357 36 7 351 266 69 304 318 122 211 250 186 218 164 190 267 213 220 249 139 278 317 69 207 332 269 284 318 255 133 263 298 99 256 349 12 43 106 268 258 29 68 222 332 323 349 289 284 295 274 245 226 201 211 194 169 156 163 127 91 94 133 136 120 90 111 112 141 73 73 43 57 38 18 17 1 21 45 1 321 353 352 8 27 32 353
60 172 58 52 328 306 127 223 19 305 282 158 213 197 203 244 220 267 256 184 265 301 327 312 309 216 261 262 155 279 357 50 1 242 171 68 91 274 246 259 79 65 30 44 59 223 219 236 257 256 240 225 205 202 191 198 178 134 122 161 206 198 207 29 53 192 209 191 213 94 65 36 66 59 32 354 25 17 1 334 347 359 342 7 10 10 5
88 29 83 106 103 273 79 173 248 201 223 275 244 214 241 262 240 249 273 273 258 252 281 259 239 208 248 302 345 334 13 23 260 276 73 309 214 266 14 97 275 100 125 263 254 259 270 265 249 251 264 245 185 176 183 179 168 162 172 167 162 169 113 140 204 222 229 170 292 43 59 275 303 308 4 35 7 350 323 332 4 12 26 356 330 49 49
136 253 89 94 243 219 183 254 279 291 246 208 251 274 277 253 320 311 282 225 232 327 305 339 349 347 330 294 114 232 266 339 328 295 142 238 7 43 7 36 327 257 188 158 246 232 251 258 266 287 279 217 177 163 186 184 169 166 170 157 162 166 171 181 214 238 207 178 215 200 192 217 195 101 85 154 307 348 350 358 0 7 15 17 49 54 68
158 109 116 203 202 168 241 273 13 324 296 310 286 304 329 352 309 275 277 282 282 274 235 177 208 121 262 228 92 353 344 338 58 277 0 22 52 242 100 217 341 40 268 182 249 257 248 285 295 281 283 191 187 179 179 180 171 176 175 173 184 191 187 196 210 222 196 207 259 234 237 269 97 107 71 34 31 349 333 341 18 21 15 29 47 55 54
100 335 30 87 347 315 254 255 32 295 307 326 358 335 328 331 310 282 251 321 274 313 8 70 23 112 251 44 314 6 274 319 196 324 56 18 291 273 65 34 231 195 275 292 283 281 289 292 301 301 166 197 216 169 158 185 181 189 205 198 181 182 194 191 208 215 211 200 194 224 235 210 136 131 235 294 293 272 16 23 20 21 10 8 38 62 69
303 126 241 175 166 223 33 328 295 304 317 312 315 314 348 314 262 274 265 299 338 23 45 36 289 55 350 18 51 12 266 298 29 46 133 227 239 80 108 226 250 231 261 276 270 275 285 291 286 276 293 254 210 214 190 176 182 216 209 187 201 198 223 238 248 301 275 214 163 140 188 287 234 204 224 129 91 61 22 6 12 21 16 3 11 57 87
55 2 274 285 228 220 211 234 224 222 242 264 288 246 189 270 262 264 308 3 39 59 326 276 58 6 50 84 220 227 303 45 9 38 38 329 108 74 265 234 279 287 287 303 302 301 297 292 269 247 248 262 267 226 162 138 141 89 73 64 85 119 138 147 157 172 191 179 157 165 126 66 101 101 110 97 79 38 5 333 339 359 14 6 356 16 61